When you browse on this site, cookies collect data to enhance your experience and personalize the content and advertising you see.
Visit our Privacy Policy to learn more. By continuing to use the site, you agree to this use of cookies and data.

Hourly Weather Llaillay

Today, 2 July, Thursday

Time Temperature Precipitation Wind Pressure Humidity
00:00 +11°C° 0 mm 1 mps 730 mmHg 87%
01:00 +11°C° 0 mm 1 mps 731 mmHg 87%
02:00 +11°C° 0 mm 1 mps 730 mmHg 87%
03:00 +9°C° 0 mm 0 mps 730 mmHg 86%
04:00 +9°C° 0 mm 0 mps 729 mmHg 86%
05:00 +9°C° 0 mm 0 mps 730 mmHg 86%
06:00 +9°C° 0 mm 0 mps 730 mmHg 85%
07:00 +8°C° 0 mm 0 mps 730 mmHg 84%
08:00 +11°C° 0 mm 0 mps 730 mmHg 75%
09:00 +13°C° 0 mm 0 mps 730 mmHg 67%
10:00 +16°C° 0 mm 0 mps 730 mmHg 58%
11:00 +19°C° 0 mm 1 mps 729 mmHg 55%
12:00 +20°C° 0 mm 1 mps 729 mmHg 52%
13:00 +20°C° 0 mm 1 mps 728 mmHg 50%
14:00 +20°C° 0 mm 1 mps 728 mmHg 56%
15:00 +19°C° 0 mm 1 mps 728 mmHg 63%
16:00 +17°C° 0 mm 0 mps 728 mmHg 69%
17:00 +15°C° 0 mm 0 mps 729 mmHg 72%
18:00 +13°C° 0 mm 0 mps 729 mmHg 75%
19:00 +11°C° 0 mm 0 mps 729 mmHg 78%
20:00 +11°C° 0 mm 0 mps 729 mmHg 77%
21:00 +11°C° 0 mm 0 mps 729 mmHg 76%
22:00 +10°C° 0 mm 0 mps 729 mmHg 75%
23:00 +10°C° 0 mm 0 mps 728 mmHg 75%

Tomorrow, 3 July, Friday

Time Temperature Precipitation Wind Pressure Humidity
00:00 +10°C° 0 mm 0 mps 728 mmHg 75%
01:00 +10°C° 0 mm 0 mps 728 mmHg 76%
02:00 +9°C° 0 mm 0 mps 728 mmHg 76%
03:00 +9°C° 0 mm 0 mps 728 mmHg 76%
04:00 +9°C° 0 mm 0 mps 728 mmHg 77%
05:00 +9°C° 0 mm 0 mps 728 mmHg 77%
06:00 +9°C° 0 mm 0 mps 729 mmHg 77%
07:00 +8°C° 0 mm 0 mps 729 mmHg 77%
08:00 +11°C° 0 mm 0 mps 729 mmHg 70%
09:00 +15°C° 0 mm 1 mps 729 mmHg 63%
10:00 +18°C° 0 mm 1 mps 729 mmHg 56%
11:00 +19°C° 0 mm 1 mps 728 mmHg 52%
12:00 +19°C° 0 mm 1 mps 728 mmHg 48%
13:00 +18°C° 0 mm 2 mps 727 mmHg 44%
14:00 +19°C° 0 mm 1 mps 727 mmHg 49%
15:00 +18°C° 0 mm 1 mps 727 mmHg 54%
16:00 +18°C° 0 mm 1 mps 727 mmHg 59%
17:00 +15°C° 0 mm 1 mps 727 mmHg 65%
18:00 +12°C° 0 mm 0 mps 726 mmHg 71%
19:00 +10°C° 0 mm 0 mps 726 mmHg 78%
20:00 +10°C° 0 mm 0 mps 726 mmHg 78%
21:00 +10°C° 0 mm 0 mps 726 mmHg 79%
22:00 +11°C° 0 mm 1 mps 727 mmHg 80%
23:00 +11°C° 0 mm 1 mps 726 mmHg 78%

Day after tomorrow, 4 July, Saturday

Time Temperature Precipitation Wind Pressure Humidity
00:00 +11°C° 0 mm 1 mps 726 mmHg 77%
01:00 +11°C° 0 mm 1 mps 726 mmHg 76%
02:00 +12°C° 0.2 mm 1 mps 726 mmHg 77%
03:00 +12°C° 0.2 mm 1 mps 725 mmHg 78%
04:00 +12°C° 0.2 mm 1 mps 725 mmHg 79%
05:00 +12°C° 2.2 mm 1 mps 725 mmHg 84%
06:00 +12°C° 2.2 mm 2 mps 725 mmHg 89%
07:00 +10°C° 2.2 mm 2 mps 725 mmHg 94%
08:00 +12°C° 3.1 mm 2 mps 725 mmHg 93%
09:00 +12°C° 3.1 mm 2 mps 725 mmHg 93%
10:00 +12°C° 3.1 mm 2 mps 725 mmHg 92%
11:00 +12°C° 1 mm 2 mps 725 mmHg 91%
12:00 +11°C° 1 mm 3 mps 725 mmHg 90%
13:00 +11°C° 1 mm 3 mps 725 mmHg 88%
14:00 +11°C° 0.8 mm 3 mps 726 mmHg 88%
15:00 +10°C° 0.8 mm 2 mps 726 mmHg 88%
16:00 +10°C° 0.8 mm 2 mps 727 mmHg 88%
17:00 +9°C° 0.4 mm 2 mps 727 mmHg 89%
18:00 +9°C° 0.4 mm 1 mps 728 mmHg 90%
19:00 +9°C° 0.4 mm 1 mps 729 mmHg 92%
20:00 +8°C° 0.1 mm 1 mps 729 mmHg 91%
21:00 +7°C° 0.1 mm 0 mps 730 mmHg 91%
22:00 +7°C° 0.1 mm 0 mps 730 mmHg 91%
23:00 +8°C° 0.1 mm 1 mps 731 mmHg 90%

5 July, Sunday

Time Temperature Precipitation Wind Pressure Humidity
00:00 +8°C° 0.1 mm 1 mps 731 mmHg 90%
01:00 +8°C° 0.1 mm 1 mps 731 mmHg 89%
02:00 +8°C° 0 mm 1 mps 731 mmHg 89%
03:00 +8°C° 0 mm 1 mps 731 mmHg 89%
04:00 +8°C° 0 mm 1 mps 731 mmHg 89%
05:00 +7°C° 0 mm 1 mps 731 mmHg 89%
06:00 +6°C° 0 mm 0 mps 731 mmHg 88%
07:00 +5°C° 0 mm 0 mps 730 mmHg 87%
08:00 +7°C° 0 mm 0 mps 730 mmHg 79%
09:00 +9°C° 0 mm 0 mps 730 mmHg 70%
10:00 +12°C° 0 mm 1 mps 730 mmHg 62%
11:00 +13°C° 0 mm 1 mps 730 mmHg 60%
12:00 +13°C° 0 mm 1 mps 729 mmHg 59%
13:00 +14°C° 0 mm 1 mps 728 mmHg 57%
14:00 +14°C° 0 mm 1 mps 728 mmHg 62%
15:00 +13°C° 0 mm 1 mps 728 mmHg 66%
16:00 +13°C° 0 mm 1 mps 728 mmHg 71%
17:00 +12°C° 0 mm 1 mps 728 mmHg 73%
18:00 +10°C° 0 mm 0 mps 728 mmHg 75%
19:00 +10°C° 0 mm 0 mps 728 mmHg 77%
20:00 +10°C° 0 mm 0 mps 728 mmHg 78%
21:00 +9°C° 0 mm 0 mps 728 mmHg 79%
22:00 +9°C° 0 mm 0 mps 728 mmHg 80%
23:00 +9°C° 0 mm 0 mps 727 mmHg 81%

6 July, Monday

Time Temperature Precipitation Wind Pressure Humidity
00:00 +8°C° 0 mm 0 mps 727 mmHg 82%
01:00 +8°C° 0 mm 0 mps 727 mmHg 83%
02:00 +8°C° 0 mm 0 mps 727 mmHg 82%
03:00 +8°C° 0 mm 0 mps 727 mmHg 81%
04:00 +8°C° 0 mm 0 mps 727 mmHg 80%
05:00 +8°C° 0 mm 0 mps 727 mmHg 80%
06:00 +8°C° 0 mm 0 mps 727 mmHg 80%
07:00 +8°C° 0 mm 0 mps 727 mmHg 81%
08:00 +9°C° 0 mm 0 mps 727 mmHg 76%
09:00 +11°C° 0 mm 1 mps 727 mmHg 72%
10:00 +12°C° 0 mm 1 mps 727 mmHg 67%
11:00 +13°C° 0 mm 1 mps 727 mmHg 66%
12:00 +13°C° 0 mm 1 mps 727 mmHg 64%
13:00 +13°C° 0 mm 1 mps 727 mmHg 63%
14:00 +13°C° 0 mm 1 mps 727 mmHg 64%
15:00 +13°C° 0 mm 1 mps 727 mmHg 64%
16:00 +13°C° 0 mm 1 mps 727 mmHg 65%
17:00 +12°C° 0 mm 1 mps 727 mmHg 72%
18:00 +10°C° 0 mm 1 mps 728 mmHg 79%
19:00 +8°C° 0 mm 0 mps 728 mmHg 86%
20:00 +7°C° 0 mm 0 mps 728 mmHg 86%
21:00 +7°C° 0 mm 0 mps 728 mmHg 87%
22:00 +7°C° 0 mm 0 mps 729 mmHg 88%
23:00 +7°C° 0 mm 0 mps 729 mmHg 88%

7 July, Tuesday

Time Temperature Precipitation Wind Pressure Humidity
00:00 +7°C° 0 mm 0 mps 729 mmHg 87%
01:00 +6°C° 0 mm 0 mps 729 mmHg 87%
02:00 +6°C° 0 mm 0 mps 729 mmHg 88%
03:00 +7°C° 0 mm 0 mps 729 mmHg 89%
04:00 +8°C° 0 mm 1 mps 730 mmHg 89%
05:00 +8°C° 0 mm 1 mps 730 mmHg 88%
06:00 +8°C° 0 mm 1 mps 731 mmHg 87%
07:00 +8°C° 0 mm 1 mps 731 mmHg 86%
08:00 +10°C° 0 mm 1 mps 731 mmHg 79%
09:00 +11°C° 0 mm 1 mps 731 mmHg 72%
10:00 +12°C° 0 mm 1 mps 731 mmHg 65%
11:00 +13°C° 0 mm 1 mps 731 mmHg 63%
12:00 +13°C° 0 mm 1 mps 731 mmHg 62%
13:00 +14°C° 0 mm 2 mps 730 mmHg 61%
14:00 +13°C° 0.2 mm 2 mps 730 mmHg 66%
15:00 +13°C° 0.2 mm 2 mps 731 mmHg 71%
16:00 +12°C° 0.2 mm 2 mps 731 mmHg 75%
17:00 +11°C° 0.1 mm 1 mps 731 mmHg 80%
18:00 +10°C° 0.1 mm 1 mps 732 mmHg 85%
19:00 +8°C° 0.1 mm 0 mps 732 mmHg 90%
20:00 +8°C° 0 mm 0 mps 732 mmHg 91%
21:00 +7°C° 0 mm 0 mps 732 mmHg 92%
22:00 +7°C° 0 mm 0 mps 732 mmHg 92%
23:00 +6°C° 0 mm 0 mps 732 mmHg 91%
Show more